Lid_Strength_Index
8 8 10 11 11 11 12 12 12 10 10 12 11 11 9 8 8 8 8 7 7 7 6 5 6 7 7 7 8 8 8 7 6 4 5 4 6 7 7 8 8 8 7 7
9 9 10 11 11 12 11 12 11 10 11 12 11 12 9 9 9 8 8 8 8 7 6 6 7 7 8 8 8 8 9 8 7 6 5 5 5 7 8 8 9 9 9 8
10 10 11 11 11 11 10 11 12 13 11 10 12 11 10 10 9 9 8 8 7 7 7 7 7 8 7 8 8 9 9 9 9 7 5 5 6 7 8 9 10 10 10 9
9 10 11 11 11 12 13 11 12 13 13 14 12 14 10 10 10 10 9 9 8 7 6 6 7 7 7 8 8 9 9 9 10 9 8 7 7 8 9 10 10 10 10 10
9 11 11 11 11 11 11 12 12 13 13 13 13 14 10 10 11 10 9 8 8 7 7 6 6 7 7 7 8 9 10 10 10 10 9 9 10 10 10 10 10 10 10 10
9 10 10 10 11 12 11 12 11 12 13 16 13 14 13 11 10 9 8 8 7 7 7 6 6 6 7 8 9 9 10 11 10 10 10 10 10 11 11 11 10 11 10 10
10 10 10 11 12 11 11 11 15 16 17 16 14 15 12 9 9 9 9 8 7 7 7 7 7 7 8 9 9 10 11 11 11 11 11 11 11 11 12 11 11 11 11 12
12 14 11 11 11 12 12 12 14 19 17 15 14 15 12 10 10 9 9 8 8 7 7 7 7 7 8 8 9 10 11 11 12 12 12 12 11 11 12 12 12 12 12 11
11 12 11 12 12 12 12 14 12 14 13 16 13 12 10 9 10 9 9 9 9 8 7 7 6 7 7 8 9 10 11 11 12 12 12 12 12 12 12 13 12 11 11 11
10 13 11 13 12 13 13 12 15 14 18 19 14 13 13 10 10 9 9 9 8 8 8 8 8 8 8 8 9 9 10 11 12 12 12 12 12 12 12 12 12 12 12 12
10 11 12 12 13 12 15 14 14 14 14 19 18 14 10 9 9 9 8 7 7 8 8 8 9 10 10 9 9 10 11 11 12 12 12 13 13 12 12 11 12 12 12 11
10 11 13 12 12 12 12 12 12 16 17 15 15 15 8 8 9 8 8 7 7 8 8 9 10 10 11 11 11 11 11 12 12 12 13 13 12 12 11 11 11 11 11 10
11 12 15 14 13 13 14 12 13 13 13 16 18 15 8 8 8 6 6 7 7 8 9 10 10 11 12 12 12 11 12 12 12 13 13 12 12 12 12 11 11 10 11 11
10 12 13 17 14 11 15 14 13 14 17 15 15 13 10 8 8 7 7 7 7 8 10 10 12 13 13 12 12 12 12 12 12 12 13 12 12 12 11 11 11 11 11 11
11 15 14 13 12 12 12 13 12 15 14 16 13 13 10 9 10 9 8 9 8 9 12 13 13 14 14 14 13 12 13 13 13 13 13 13 12 11 11 11 11 11 11 11
12 15 15 15 12 12 14 12 12 12 12 12 12 13 10 10 10 11 11 11 10 11 12 12 13 13 14 14 14 13 13 13 13 13 13 12 12 11 11 11 12 11 11 11
14 15 16 17 12 13 16 12 11 11 10 11 13 12 11 11 12 14 14 12 13 14 13 13 13 13 13 13 13 13 13 12 13 13 13 12 12 12 12 11 11 12 11 11
14 15 15 16 15 20 11 10 10 12 14 15 14 14 14 13 14 15 15 15 15 14 14 13 13 13 13 13 13 12 12 12 12 12 12 12 13 13 12 12 12 12 11 11
8 12 15 17 17 14 12 13 13 12 17 17 17 16 15 13 11 15 13 13 14 14 14 13 13 13 13 13 13 13 13 12 12 12 12 12 12 13 13 12 12 11 11 12
11 9 14 15 18 19 15 15 14 13 17 17 17 17 17 14 14 16 14 13 14 13 13 13 13 13 13 13 13 13 13 13 13 12 12 12 12 12 12 12 12 11 12 12
13 13 15 16 17 15 19 16 15 16 19 17 17 17 17 17 16 14 13 14 13 13 13 13 14 14 14 13 14 14 13 14 12 12 12 11 11 11 11 12 12 12 13 13
14 15 15 15 17 18 18 16 17 19 16 17 17 17 18 16 14 15 14 14 14 14 14 14 14 14 13 13 13 14 14 12 12 12 12 11 11 11 12 13 13 12 13 13
15 15 15 18 20 18 18 18 17 17 17 17 18 16 16 16 16 15 16 15 14 14 14 13 14 14 13 12 12 13 12 12 12 12 12 12 12 12 12 13 13 13 13 13
16 16 16 18 18 19 18 18 17 16 17 16 16 16 16 17 16 16 16 15 15 15 14 14 14 14 13 12 12 12 12 12 12 13 13 13 13 13 13 12 13 13 13 13
21 18 19 20 19 18 18 17 17 17 16 16 15 16 16 16 17 16 16 16 15 15 14 13 14 14 14 13 13 12 13 13 14 14 13 13 13 13 13 13 13 13 12 12
19 21 19 20 19 19 18 17 17 18 18 17 17 17 16 16 17 16 16 15 15 14 14 14 14 14 14 14 14 13 13 13 14 14 13 13 13 13 13 13 13 10 10 9